Wind_Speed
63 61 75 62 58 66 59 57 52 46 49 49 52 49 45 42 41 40 39 35 32 30 32 27 24 22 21 20 20 21 21 20 20 20 22 24 27 29 31 31 34 32 30 27
60 74 64 42 58 68 62 54 57 53 56 50 53 51 46 47 42 40 37 37 35 38 33 29 26 25 24 25 26 24 26 25 24 24 25 28 28 31 32 34 30 29 28 29
58 68 65 54 52 60 63 58 58 56 55 49 55 53 51 51 48 44 43 41 40 39 35 33 29 27 28 28 27 27 28 27 27 27 27 28 29 32 36 33 29 29 30 33
67 63 65 55 42 54 66 57 55 55 54 52 53 51 51 51 53 48 45 41 37 36 35 35 31 30 29 30 30 29 29 30 29 29 29 29 32 34 33 34 32 33 34 36
51 54 51 59 37 46 63 69 59 50 54 58 55 51 49 48 53 49 48 44 38 41 40 37 34 33 33 35 32 31 32 32 32 31 30 31 31 34 35 36 36 35 38 38
46 55 54 58 40 39 53 67 65 46 55 56 55 55 51 47 49 53 45 41 41 40 44 40 38 37 36 36 34 34 35 35 34 33 32 33 32 34 37 39 38 38 39 40
40 44 59 44 36 38 41 59 63 62 55 55 45 55 54 50 50 49 47 41 38 41 43 42 42 40 39 38 38 39 38 37 36 36 36 35 34 36 38 40 40 40 39 43
44 37 44 46 36 36 36 50 59 60 64 60 65 63 57 53 50 43 53 42 40 45 47 46 46 43 42 40 41 41 42 40 39 39 39 39 39 40 40 40 40 41 43 46
42 49 46 42 34 35 38 47 49 59 48 60 66 64 62 54 52 47 43 46 40 44 45 44 47 46 43 42 42 44 44 42 41 43 42 42 42 42 41 43 43 43 45 46
49 47 42 47 41 37 39 40 48 51 53 53 60 60 61 56 52 49 43 45 41 45 47 46 48 47 45 44 44 43 43 42 43 44 45 45 44 44 43 45 46 47 47 48
32 52 49 41 42 35 36 38 42 50 55 56 61 61 57 59 55 47 45 48 46 43 49 46 49 50 48 46 47 47 43 43 45 47 46 46 45 47 47 46 47 48 49 51
38 45 38 49 40 35 36 35 36 41 48 54 58 57 56 58 60 61 58 50 52 49 46 48 51 51 47 46 45 44 44 46 48 48 49 46 47 47 48 49 51 51 51 52
29 31 37 45 50 45 34 32 38 39 44 51 52 51 49 51 50 50 51 53 53 52 49 47 48 48 47 47 48 48 48 48 48 48 47 49 49 49 51 51 52 52 52 53
33 30 29 41 45 49 46 36 35 40 43 46 48 48 49 46 42 42 37 41 49 51 50 44 47 50 50 48 48 48 48 49 49 49 51 52 52 51 53 52 53 53 52 53
31 33 33 29 30 34 39 38 37 37 39 44 45 46 45 45 44 45 42 39 40 45 43 41 41 46 54 52 52 51 51 50 51 51 53 51 51 52 52 52 52 51 51 50
31 36 31 31 33 33 30 33 34 37 37 43 45 46 46 46 44 43 44 41 39 37 36 41 43 40 47 57 56 56 55 55 57 53 48 49 50 49 50 49 48 52 49 43
33 30 34 37 36 36 34 30 32 31 36 38 41 35 37 44 42 41 40 41 42 42 43 45 46 46 47 49 51 53 55 52 47 45 43 43 44 47 48 50 52 50 41 38
27 33 35 35 35 37 36 35 37 33 34 37 38 39 37 39 41 43 44 45 44 42 44 47 48 48 48 49 49 49 46 42 39 39 41 44 49 51 51 50 45 42 38 33
19 26 28 31 34 38 38 39 37 39 38 37 36 38 39 39 39 38 42 42 44 46 46 47 46 44 43 41 41 41 41 41 41 40 45 50 51 48 46 44 43 39 33 31
20 19 25 29 29 33 38 40 41 42 42 42 41 39 38 38 39 35 40 42 44 46 46 45 43 43 42 41 41 42 41 42 43 46 50 48 47 47 46 44 40 34 31 33
25 23 24 26 26 27 29 31 37 40 42 42 45 46 46 46 43 42 41 40 39 39 39 41 42 43 44 44 45 46 44 43 44 46 47 47 46 45 41 41 35 33 34 33
29 30 29 28 29 28 25 26 28 31 34 38 42 43 45 49 49 49 46 46 46 45 43 41 40 42 44 46 47 46 43 43 46 46 45 45 45 42 42 35 32 34 35 34
31 31 30 31 31 31 31 29 30 31 33 35 35 36 38 41 43 45 47 46 45 46 47 48 48 48 47 47 47 45 43 44 45 44 44 42 40 39 34 34 35 35 33 35
33 33 35 35 35 35 36 36 35 35 37 36 36 37 38 40 43 44 43 43 42 40 43 46 48 46 43 42 42 42 42 42 41 40 37 36 39 35 35 34 33 36 34 36
27 28 32 36 40 44 44 45 44 42 41 42 40 40 41 42 41 40 41 40 39 39 38 39 39 40 40 38 37 34 34 36 37 36 35 34 34 35 35 33 34 37 40 38
22 25 30 33 38 42 45 51 55 54 50 51 47 45 44 44 43 42 41 41 43 40 38 38 37 37 36 35 33 31 31 32 32 33 35 34 35 38 39 34 33 36 36 36
Wind_Direction
200 206 213 211 213 207 214 218 215 205 221 219 215 212 217 218 217 219 219 220 223 223 227 227 230 234 237 238 242 244 250 255 264 272 279 284 287 287 289 294 296 296 296 298
200 212 205 209 216 212 214 211 210 211 214 219 216 213 214 216 216 221 222 221 222 226 228 230 232 236 238 241 245 249 254 259 266 273 280 284 285 287 293 297 298 294 294 296
213 217 207 213 212 213 212 212 206 213 214 216 218 218 216 220 219 217 216 216 221 226 229 228 231 236 239 243 246 250 256 262 267 275 281 283 285 288 294 294 295 293 296 299
210 216 216 206 212 213 212 207 206 215 221 220 220 215 218 219 220 218 219 221 226 233 234 235 234 240 243 246 247 253 260 264 272 277 278 283 288 290 291 293 294 296 298 299
200 195 204 212 202 205 213 212 212 220 220 220 214 222 218 215 217 221 221 226 231 238 239 240 238 238 241 245 250 256 261 267 271 274 275 283 287 290 292 293 294 296 296 299
211 205 201 197 204 198 209 209 212 215 221 225 226 220 219 221 224 222 224 231 240 238 234 239 239 240 242 249 253 257 261 265 271 271 273 280 285 287 290 291 292 292 294 301
209 221 214 202 200 205 206 210 213 224 226 228 221 226 221 220 226 224 228 236 236 231 232 239 242 243 246 248 254 256 260 265 269 267 273 279 284 286 289 292 291 292 297 300
204 194 210 203 207 206 209 204 209 218 229 232 230 227 226 226 229 232 228 234 228 229 234 239 242 246 249 249 253 255 261 264 268 266 271 280 284 287 290 292 292 292 296 301
211 214 206 207 205 213 215 209 207 218 219 224 231 230 232 233 239 238 241 224 234 239 242 245 245 247 251 251 253 257 257 263 264 267 272 278 282 285 290 292 291 291 294 297
224 222 225 229 223 219 223 220 218 216 220 228 227 230 232 235 237 238 229 230 247 249 241 245 246 247 250 248 252 257 259 264 266 267 271 277 280 283 287 290 291 290 292 294
204 219 223 222 222 226 223 230 225 222 221 224 226 234 235 238 236 234 237 248 245 243 230 238 240 244 249 248 255 255 260 263 263 266 271 274 279 284 287 289 287 286 289 292
215 220 237 234 229 225 226 226 221 223 224 229 234 239 245 243 245 244 245 252 246 246 228 234 241 242 248 248 249 253 257 259 262 266 270 275 278 285 289 288 286 285 288 293
215 220 228 233 232 235 240 233 222 224 224 225 230 236 244 249 247 249 244 238 242 244 237 237 242 238 244 245 247 251 255 258 262 267 269 273 280 285 286 286 285 287 290 295
218 221 228 233 240 245 246 245 235 234 229 229 230 236 243 246 246 246 238 239 235 242 240 243 245 239 238 245 248 252 257 259 262 266 272 277 281 283 284 282 285 287 291 295
219 221 224 221 225 228 229 231 233 235 232 232 233 234 239 242 245 243 249 248 244 239 238 245 248 249 238 242 246 250 255 258 265 269 273 277 278 280 280 281 284 289 294 297
216 225 227 227 231 224 222 225 229 233 234 232 232 232 232 238 240 242 243 248 250 248 247 246 250 251 247 245 249 254 256 260 264 268 272 274 276 276 277 281 286 290 296 293
225 223 232 244 247 252 241 240 234 230 231 233 235 234 232 232 232 238 242 245 247 246 246 248 249 251 250 251 252 253 256 260 261 266 268 271 273 275 281 286 289 292 292 289
235 236 234 237 235 244 246 243 245 238 234 231 232 231 229 228 229 234 239 243 248 246 247 248 248 250 251 251 251 253 255 257 259 265 267 271 275 279 283 287 288 289 288 280
248 243 245 248 243 239 240 240 240 241 239 238 238 238 235 236 234 239 241 245 248 245 245 248 250 251 252 253 252 253 255 256 261 265 269 273 277 280 282 284 285 286 278 278
262 254 246 246 246 243 240 240 239 242 241 241 242 244 247 247 242 239 242 244 245 243 244 251 254 254 254 256 256 256 257 259 265 268 268 271 274 278 281 282 282 277 271 277
255 261 261 252 248 247 247 248 245 243 244 243 242 243 242 242 244 244 243 245 248 251 252 252 254 254 256 259 258 258 260 263 262 263 266 271 276 279 280 280 274 270 275 280
244 254 254 256 266 265 260 262 254 251 251 249 247 247 247 245 245 247 250 250 250 249 251 254 257 255 253 255 258 260 261 261 263 267 271 273 275 277 278 270 266 272 276 278
254 257 257 253 252 257 259 258 261 259 254 254 251 251 254 253 251 253 253 256 258 258 256 253 254 255 256 257 259 262 263 264 268 269 270 273 274 275 262 259 265 273 274 280
262 263 264 266 266 262 258 258 255 258 262 258 257 258 258 257 254 254 256 258 259 262 263 262 259 258 256 255 257 259 263 266 266 268 271 272 272 262 258 266 273 273 277 283
274 270 269 272 273 271 271 270 267 262 259 259 258 255 254 254 253 255 257 257 258 258 259 256 250 246 246 248 252 259 263 264 266 266 267 269 263 260 260 264 269 277 279 286
267 271 279 283 281 281 277 273 270 268 265 262 258 257 256 256 255 252 253 254 254 250 244 245 242 242 243 246 249 252 257 256 259 264 265 264 263 264 263 263 269 276 285 294
Height
5649 5662 5667 5685 5697 5708 5720 5727 5736 5746 5749 5757 5763 5772 5778 5784 5789 5792 5797 5801 5807 5810 5811 5815 5819 5822 5825 5828 5830 5831 5833 5834 5834 5835 5836 5835 5835 5834 5833 5832 5831 5828 5827 5824
5645 5655 5678 5684 5692 5702 5711 5720 5730 5737 5742 5751 5758 5765 5771 5775 5782 5788 5794 5797 5801 5801 5808 5811 5814 5818 5821 5823 5825 5827 5829 5830 5830 5831 5831 5831 5830 5829 5828 5827 5826 5823 5821 5819
5646 5659 5665 5673 5683 5693 5703 5713 5723 5730 5737 5744 5748 5758 5763 5768 5774 5779 5783 5788 5792 5796 5803 5806 5809 5813 5815 5818 5820 5821 5823 5825 5825 5826 5826 5826 5824 5824 5822 5821 5820 5817 5816 5813
5641 5647 5658 5668 5678 5687 5696 5708 5717 5724 5730 5736 5742 5748 5754 5761 5769 5773 5780 5784 5788 5793 5797 5800 5804 5807 5811 5812 5813 5816 5818 5819 5819 5820 5820 5820 5819 5818 5816 5814 5814 5811 5809 5807
5632 5640 5652 5664 5678 5682 5691 5702 5710 5716 5722 5728 5734 5741 5750 5755 5760 5766 5772 5779 5784 5787 5791 5795 5799 5801 5803 5805 5808 5811 5812 5813 5813 5814 5814 5814 5813 5811 5809 5808 5806 5804 5802 5800
5629 5639 5646 5659 5667 5673 5681 5691 5702 5710 5713 5717 5727 5735 5742 5746 5754 5761 5768 5773 5778 5780 5784 5788 5792 5794 5796 5800 5803 5805 5805 5806 5807 5807 5808 5808 5808 5805 5803 5801 5799 5797 5795 5793
5627 5636 5643 5654 5662 5666 5673 5685 5693 5698 5699 5709 5719 5724 5733 5739 5746 5756 5763 5768 5771 5773 5777 5781 5784 5788 5790 5795 5796 5797 5798 5799 5800 5801 5802 5802 5801 5800 5797 5795 5792 5789 5788 5786
5625 5630 5637 5647 5655 5663 5671 5678 5683 5687 5694 5704 5708 5712 5720 5733 5740 5749 5754 5761 5764 5766 5770 5773 5777 5781 5784 5787 5789 5791 5791 5791 5793 5793 5795 5795 5794 5793 5791 5788 5786 5784 5782 5779
5618 5625 5633 5642 5649 5657 5663 5666 5675 5683 5690 5694 5702 5712 5718 5730 5734 5741 5747 5753 5757 5760 5766 5768 5770 5774 5777 5780 5782 5783 5783 5784 5785 5786 5787 5786 5786 5785 5783 5780 5779 5778 5775 5772
5616 5625 5631 5637 5645 5652 5658 5665 5669 5675 5684 5689 5695 5702 5710 5717 5726 5732 5738 5746 5749 5752 5755 5759 5762 5767 5768 5770 5773 5774 5775 5777 5778 5778 5778 5778 5778 5776 5774 5772 5771 5769 5767 5764
5616 5621 5629 5633 5640 5647 5653 5657 5663 5670 5677 5681 5687 5695 5702 5708 5715 5722 5728 5732 5738 5741 5744 5749 5753 5756 5759 5761 5763 5765 5767 5768 5769 5769 5769 5770 5769 5767 5766 5765 5763 5761 5758 5755
5615 5618 5625 5631 5637 5642 5647 5652 5656 5662 5670 5676 5683 5690 5693 5700 5707 5713 5718 5723 5727 5731 5734 5739 5744 5748 5750 5751 5754 5756 5757 5758 5759 5760 5761 5760 5759 5759 5757 5755 5753 5751 5748 5744
5611 5614 5619 5624 5629 5634 5640 5646 5651 5654 5659 5668 5674 5683 5684 5688 5694 5698 5706 5712 5717 5721 5724 5729 5733 5737 5739 5742 5743 5745 5747 5748 5751 5751 5750 5750 5751 5749 5748 5746 5744 5740 5737 5734
5607 5609 5613 5618 5623 5630 5636 5640 5644 5647 5654 5662 5668 5671 5675 5680 5685 5690 5695 5700 5704 5709 5714 5718 5723 5726 5728 5730 5732 5735 5737 5739 5739 5739 5740 5741 5739 5738 5736 5734 5732 5729 5727 5723
5600 5603 5608 5613 5617 5621 5627 5632 5634 5641 5648 5650 5657 5662 5667 5671 5676 5681 5685 5689 5693 5699 5703 5707 5711 5713 5713 5717 5721 5723 5725 5727 5729 5730 5731 5729 5729 5727 5725 5723 5721 5719 5716 5712
5595 5600 5603 5607 5611 5615 5619 5624 5629 5634 5637 5640 5644 5652 5657 5660 5665 5670 5675 5679 5683 5688 5691 5694 5697 5701 5704 5708 5710 5712 5715 5716 5718 5718 5718 5718 5718 5715 5714 5712 5710 5709 5704 5702
5591 5594 5598 5600 5604 5608 5613 5619 5622 5625 5629 5634 5638 5647 5648 5652 5658 5662 5665 5669 5673 5676 5679 5682 5686 5690 5694 5696 5698 5701 5703 5705 5705 5706 5708 5707 5706 5704 5703 5702 5700 5697 5693 5692
5585 5588 5590 5594 5597 5600 5606 5610 5616 5619 5622 5625 5631 5635 5638 5642 5646 5649 5655 5659 5662 5666 5670 5673 5676 5679 5682 5685 5688 5690 5691 5692 5694 5695 5696 5696 5695 5693 5692 5690 5688 5685 5684 5682
5579 5582 5585 5588 5592 5596 5598 5603 5607 5611 5616 5620 5624 5626 5629 5633 5638 5644 5646 5650 5654 5658 5661 5665 5668 5670 5673 5676 5678 5680 5682 5682 5684 5685 5685 5684 5682 5682 5680 5678 5676 5675 5675 5675
5574 5577 5580 5583 5585 5588 5591 5594 5597 5602 5609 5612 5615 5617 5621 5624 5629 5633 5634 5639 5642 5646 5649 5653 5658 5661 5664 5666 5668 5670 5670 5672 5673 5673 5672 5671 5671 5670 5669 5667 5666 5666 5665 5665
5571 5573 5576 5578 5578 5582 5584 5587 5590 5596 5603 5601 5605 5608 5612 5616 5620 5624 5627 5630 5634 5636 5639 5643 5646 5650 5652 5655 5657 5658 5659 5660 5660 5660 5660 5660 5659 5658 5658 5657 5657 5658 5658 5657
5566 5570 5572 5573 5575 5579 5579 5581 5584 5587 5587 5591 5595 5599 5602 5605 5608 5612 5616 5620 5624 5627 5630 5632 5635 5637 5640 5643 5645 5647 5648 5648 5649 5649 5650 5649 5648 5647 5647 5647 5648 5649 5649 5649
5561 5562 5565 5568 5568 5569 5570 5573 5574 5577 5580 5582 5585 5587 5591 5594 5597 5601 5604 5607 5611 5614 5618 5621 5624 5626 5628 5630 5633 5634 5635 5636 5638 5639 5638 5638 5638 5637 5638 5639 5640 5640 5640 5640
5551 5553 5555 5557 5560 5561 5564 5566 5567 5571 5575 5576 5578 5580 5582 5585 5588 5591 5594 5597 5600 5603 5606 5609 5612 5614 5616 5618 5620 5622 5624 5625 5625 5626 5627 5628 5628 5629 5631 5632 5632 5632 5632 5631
5543 5543 5544 5548 5550 5551 5556 5558 5560 5563 5565 5567 5570 5572 5575 5577 5579 5581 5583 5586 5590 5593 5595 5598 5600 5602 5604 5606 5608 5610 5612 5615 5616 5617 5618 5620 5620 5621 5622 5622 5622 5622 5623 5622
5532 5534 5537 5540 5537 5540 5544 5545 5547 5549 5552 5553 5557 5561 5564 5567 5570 5571 5573 5576 5579 5581 5585 5587 5590 5591 5593 5595 5597 5600 5602 5605 5607 5609 5610 5610 5612 5613 5612 5612 5612 5613 5612 5610